| time (UTC) | temp F | wind direction | speed MPH | gust MPH | rain 1hr in | rain 24hr in | rain mn in | humidity % | barometer mb |
| 20260505011205 | 67 | 186 | 8.0 | 12.0 | 0.00 | 0.00 | 0.00 | 55 | 1009.4 |
| 20260505010205 | 67 | 171 | 6.0 | 14.0 | 0.00 | 0.00 | 0.00 | 53 | 1009.4 |
| 20260505005705 | 67 | 186 | 7.0 | 14.0 | 0.00 | 0.00 | 0.00 | 54 | 1009.2 |
| 20260505005204 | 67 | 193 | 7.0 | 15.0 | 0.00 | 0.00 | 0.00 | 54 | 1009.2 |
| 20260505004704 | 67 | 193 | 7.0 | 12.0 | 0.00 | 0.00 | 0.00 | 54 | 1009.2 |
| 20260505004204 | 67 | 194 | 6.0 | 9.0 | 0.00 | 0.00 | 0.00 | 54 | 1009.2 |
| 20260505003704 | 67 | 188 | 5.0 | 9.0 | 0.00 | 0.00 | 0.00 | 53 | 1009.1 |
| 20260505003205 | 67 | 191 | 4.0 | 9.0 | 0.00 | 0.00 | 0.00 | 54 | 1009.2 |
| 20260505002204 | 67 | 193 | 5.0 | 7.0 | 0.00 | 0.00 | 0.00 | 54 | 1009.2 |
| 20260505001705 | 68 | 190 | 5.0 | 9.0 | 0.00 | 0.00 | 0.00 | 52 | 1009.2 |
| 20260505001204 | 68 | 185 | 4.0 | 7.0 | 0.00 | 0.00 | 0.00 | 54 | 1009.2 |
| 20260505000705 | 68 | 190 | 4.0 | 7.0 | 0.00 | 0.00 | 0.00 | 52 | 1009.2 |
| 20260505000205 | 68 | 201 | 6.0 | 10.0 | 0.00 | 0.00 | 0.00 | 53 | 1009.2 |
| 20260504235205 | 68 | 200 | 6.0 | 12.0 | 0.00 | 0.00 | 0.00 | 51 | 1009.2 |
| 20260504234705 | 68 | 182 | 7.0 | 10.0 | 0.00 | 0.00 | 0.00 | 51 | 1009.2 |
| 20260504234204 | 69 | 205 | 8.0 | 14.0 | 0.00 | 0.00 | 0.00 | 53 | 1009.2 |
| 20260504233704 | 69 | 209 | 8.0 | 12.0 | 0.00 | 0.00 | 0.00 | 54 | 1009.2 |
| 20260504232205 | 69 | 204 | 9.0 | 14.0 | 0.00 | 0.00 | 0.00 | 50 | 1009.1 |
| 20260504231704 | 70 | 195 | 9.0 | 16.0 | 0.00 | 0.00 | 0.00 | 48 | 1009.0 |
| 20260504230205 | 70 | 181 | 7.0 | 15.0 | 0.00 | 0.00 | 0.00 | 47 | 1009.0 |
| 20260504225705 | 70 | 183 | 9.0 | 16.0 | 0.00 | 0.00 | 0.00 | 47 | 1009.1 |
| 20260504225204 | 70 | 190 | 10.0 | 16.0 | 0.00 | 0.00 | 0.00 | 46 | 1009.0 |
| 20260504224204 | 70 | 195 | 7.0 | 18.0 | 0.00 | 0.00 | 0.00 | 45 | 1009.0 |
| 20260504223705 | 70 | 170 | 10.0 | 20.0 | 0.00 | 0.00 | 0.00 | 43 | 1009.0 |
| 20260504223204 | 70 | 198 | 9.0 | 16.0 | 0.00 | 0.00 | 0.00 | 44 | 1008.9 |
| 20260504222704 | 70 | 192 | 9.0 | 15.0 | 0.00 | 0.00 | 0.00 | 43 | 1009.0 |
| 20260504222204 | 71 | 163 | 10.0 | 17.0 | 0.00 | 0.00 | 0.00 | 43 | 1009.0 |
| 20260504221204 | 71 | 186 | 9.0 | 15.0 | 0.00 | 0.00 | 0.00 | 41 | 1009.1 |
| 20260504220705 | 71 | 196 | 10.0 | 15.0 | 0.00 | 0.00 | 0.00 | 44 | 1009.2 |
| 20260504220205 | 71 | 193 | 9.0 | 16.0 | 0.00 | 0.00 | 0.00 | 44 | 1009.1 |
| 20260504215704 | 72 | 182 | 10.0 | 18.0 | 0.00 | 0.00 | 0.00 | 44 | 1009.1 |
| 20260504215204 | 72 | 195 | 10.0 | 16.0 | 0.00 | 0.00 | 0.00 | 42 | 1009.1 |
| 20260504214704 | 73 | 181 | 10.0 | 16.0 | 0.00 | 0.00 | 0.00 | 41 | 1009.1 |
| 20260504214204 | 73 | 198 | 11.0 | 20.0 | 0.00 | 0.00 | 0.00 | 41 | 1009.0 |
| 20260504213704 | 74 | 170 | 11.0 | 20.0 | 0.00 | 0.00 | 0.00 | 40 | 1009.2 |
| 20260504213205 | 74 | 183 | 7.0 | 15.0 | 0.00 | 0.00 | 0.00 | 41 | 1009.1 |
| 20260504212204 | 75 | 190 | 10.0 | 20.0 | 0.00 | 0.00 | 0.00 | 41 | 1009.2 |
| 20260504211705 | 74 | 194 | 9.0 | 17.0 | 0.00 | 0.00 | 0.00 | 41 | 1009.3 |
| 20260504211205 | 74 | 201 | 9.0 | 14.0 | 0.00 | 0.00 | 0.00 | 42 | 1009.3 |
| 20260504210704 | 74 | 185 | 10.0 | 17.0 | 0.00 | 0.00 | 0.00 | 42 | 1009.2 |
| 20260504205704 | 75 | 200 | 8.0 | 13.0 | 0.00 | 0.00 | 0.00 | 40 | 1009.3 |
| 20260504205204 | 74 | 182 | 9.0 | 17.0 | 0.00 | 0.00 | 0.00 | 40 | 1009.2 |
| 20260504204704 | 75 | 202 | 10.0 | 15.0 | 0.00 | 0.00 | 0.00 | 41 | 1009.3 |
| 20260504204204 | 75 | 204 | 9.0 | 16.0 | 0.00 | 0.00 | 0.00 | 39 | 1009.3 |
| 20260504203704 | 75 | 211 | 10.0 | 20.0 | 0.00 | 0.00 | 0.00 | 39 | 1009.3 |
| 20260504203204 | 75 | 187 | 12.0 | 20.0 | 0.00 | 0.00 | 0.00 | 38 | 1009.3 |
| 20260504202704 | 74 | 194 | 10.0 | 17.0 | 0.00 | 0.00 | 0.00 | 40 | 1009.4 |
| 20260504202204 | 74 | 202 | 10.0 | 21.0 | 0.00 | 0.00 | 0.00 | 37 | 1009.5 |
| 20260504201704 | 74 | 209 | 10.0 | 20.0 | 0.00 | 0.00 | 0.00 | 42 | 1009.6 |
| 20260504201204 | 74 | 196 | 11.0 | 18.0 | 0.00 | 0.00 | 0.00 | 40 | 1009.6 |
| 20260504200704 | 74 | 193 | 10.0 | 20.0 | 0.00 | 0.00 | 0.00 | 39 | 1009.6 |
| 20260504200204 | 74 | 205 | 10.0 | 14.0 | 0.00 | 0.00 | 0.00 | 41 | 1009.7 |
| 20260504195204 | 74 | 205 | 10.0 | 20.0 | 0.00 | 0.00 | 0.00 | 38 | 1009.9 |
| 20260504194704 | 74 | 210 | 9.0 | 13.0 | 0.00 | 0.00 | 0.00 | 38 | 1009.9 |
| 20260504194204 | 74 | 209 | 9.0 | 16.0 | 0.00 | 0.00 | 0.00 | 40 | 1010.0 |
| 20260504193704 | 74 | 213 | 11.0 | 16.0 | 0.00 | 0.00 | 0.00 | 39 | 1010.2 |
| 20260504193204 | 74 | 204 | 9.0 | 16.0 | 0.00 | 0.00 | 0.00 | 39 | 1010.2 |
| 20260504192704 | 74 | 195 | 12.0 | 17.0 | 0.00 | 0.00 | 0.00 | 40 | 1010.3 |
| 20260504192204 | 73 | 202 | 9.0 | 12.0 | 0.00 | 0.00 | 0.00 | 41 | 1010.3 |
| 20260504191704 | 73 | 187 | 9.0 | 15.0 | 0.00 | 0.00 | 0.00 | 40 | 1010.4 |
| 20260504191204 | 73 | 192 | 7.0 | 13.0 | 0.00 | 0.00 | 0.00 | 42 | 1010.4 |
| 20260504190204 | 73 | 204 | 9.0 | 13.0 | 0.00 | 0.00 | 0.00 | 41 | 1010.5 |
| 20260504185704 | 73 | 194 | 7.0 | 16.0 | 0.00 | 0.00 | 0.00 | 39 | 1010.6 |
| 20260504185204 | 73 | 200 | 10.0 | 17.0 | 0.00 | 0.00 | 0.00 | 37 | 1010.7 |
| 20260504184704 | 73 | 201 | 12.0 | 17.0 | 0.00 | 0.00 | 0.00 | 40 | 1010.8 |
| 20260504184204 | 72 | 177 | 10.0 | 17.0 | 0.00 | 0.00 | 0.00 | 36 | 1010.9 |
| 20260504183704 | 72 | 202 | 9.0 | 13.0 | 0.00 | 0.00 | 0.00 | 41 | 1011.0 |
| 20260504183204 | 72 | 189 | 11.0 | 18.0 | 0.00 | 0.00 | 0.00 | 37 | 1011.1 |
| 20260504182204 | 72 | 194 | 11.0 | 16.0 | 0.00 | 0.00 | 0.00 | 37 | 1011.2 |
| 20260504181204 | 72 | 195 | 9.0 | 16.0 | 0.00 | 0.00 | 0.00 | 39 | 1011.2 |
| 20260504180704 | 72 | 206 | 10.0 | 14.0 | 0.00 | 0.00 | 0.00 | 39 | 1011.3 |
| 20260504180204 | 72 | 195 | 10.0 | 14.0 | 0.00 | 0.00 | 0.00 | 40 | 1011.4 |
| 20260504175705 | 72 | 207 | 9.0 | 13.0 | 0.00 | 0.00 | 0.00 | 39 | 1011.5 |
| 20260504175204 | 72 | 199 | 9.0 | 13.0 | 0.00 | 0.00 | 0.00 | 41 | 1011.6 |
| 20260504174704 | 71 | 204 | 9.0 | 12.0 | 0.00 | 0.00 | 0.00 | 43 | 1011.6 |
| 20260504174204 | 71 | 202 | 9.0 | 13.0 | 0.00 | 0.00 | 0.00 | 40 | 1011.7 |
| 20260504173704 | 71 | 208 | 8.0 | 15.0 | 0.00 | 0.00 | 0.00 | 40 | 1011.7 |
| 20260504173204 | 71 | 210 | 8.0 | 14.0 | 0.00 | 0.00 | 0.00 | 39 | 1011.7 |
| 20260504172704 | 71 | 209 | 10.0 | 15.0 | 0.00 | 0.00 | 0.00 | 39 | 1011.7 |
| 20260504171704 | 70 | 210 | 8.0 | 12.0 | 0.00 | 0.00 | 0.00 | 40 | 1011.8 |
| 20260504171204 | 70 | 179 | 8.0 | 12.0 | 0.00 | 0.00 | 0.00 | 41 | 1011.7 |
| 20260504170704 | 70 | 175 | 6.0 | 10.0 | 0.00 | 0.00 | 0.00 | 43 | 1011.8 |
| 20260504170205 | 70 | 203 | 7.0 | 12.0 | 0.00 | 0.00 | 0.00 | 43 | 1011.8 |
| 20260504160204 | 68 | 160 | 6.0 | 12.0 | 0.00 | 0.00 | 0.00 | 44 | 1012.6 |
| 20260504150204 | 68 | 199 | 9.0 | 12.0 | 0.00 | 0.00 | 0.00 | 49 | 1013.1 |
| 20260504141204 | 64 | 202 | 9.0 | 12.0 | 0.00 | 0.00 | 0.00 | 53 | 1013.2 |
| 20260504140704 | 64 | 202 | 7.0 | 9.0 | 0.00 | 0.00 | 0.00 | 51 | 1013.2 |
| 20260504120203 | 59 | 207 | 10.0 | 14.0 | 0.00 | 0.00 | 0.00 | 63 | 1013.9 |
| 20260504110704 | 55 | 210 | 9.0 | 13.0 | 0.00 | 0.00 | 0.00 | 69 | 1014.2 |
| 20260504110204 | 55 | 193 | 10.0 | 13.0 | 0.00 | 0.00 | 0.00 | 69 | 1014.4 |
| 20260504100203 | 56 | 218 | 11.0 | 14.0 | 0.00 | 0.00 | 0.00 | 68 | 1014.4 |
| 20260504081705 | 57 | 194 | 11.0 | 20.0 | 0.00 | 0.00 | 0.00 | 68 | 1014.2 |
| 20260504081206 | 57 | 197 | 11.0 | 20.0 | 0.00 | 0.00 | 0.00 | 70 | 1014.2 |
| 20260504080706 | 57 | 199 | 8.0 | 15.0 | 0.00 | 0.00 | 0.00 | 69 | 1014.2 |
| 20260504080205 | 57 | 198 | 12.0 | 17.0 | 0.00 | 0.00 | 0.00 | 70 | 1014.2 |
| 20260504070206 | 56 | 213 | 11.0 | 15.0 | 0.00 | 0.00 | 0.00 | 72 | 1014.5 |
| 20260504060206 | 55 | 195 | 9.0 | 14.0 | 0.00 | 0.00 | 0.00 | 71 | 1014.6 |
| 20260504050706 | 51 | 198 | 9.0 | 13.0 | 0.00 | 0.00 | 0.00 | 76 | 1014.4 |
| 20260504050206 | 51 | 198 | 7.0 | 12.0 | 0.00 | 0.00 | 0.00 | 75 | 1014.4 |
| 20260504045205 | 51 | 203 | 9.0 | 12.0 | 0.00 | 0.00 | 0.00 | 73 | 1014.5 |
| 20260504044706 | 51 | 196 | 10.0 | 14.0 | 0.00 | 0.00 | 0.00 | 72 | 1014.4 |
| 20260504044205 | 50 | 206 | 9.0 | 12.0 | 0.00 | 0.00 | 0.00 | 73 | 1014.5 |
| 20260504043705 | 50 | 204 | 9.0 | 13.0 | 0.00 | 0.00 | 0.00 | 74 | 1014.5 |
| 20260504043205 | 50 | 209 | 9.0 | 12.0 | 0.00 | 0.00 | 0.00 | 74 | 1014.5 |
| 20260504042705 | 49 | 202 | 9.0 | 12.0 | 0.00 | 0.00 | 0.00 | 75 | 1014.4 |
| 20260504041705 | 49 | 205 | 7.0 | 12.0 | 0.00 | 0.00 | 0.00 | 76 | 1014.3 |
| 20260504041205 | 49 | 212 | 7.0 | 9.0 | 0.00 | 0.00 | 0.00 | 77 | 1014.4 |
| 20260504040205 | 48 | 212 | 8.0 | 10.0 | 0.00 | 0.00 | 0.00 | 78 | 1014.4 |
| 20260504035705 | 48 | 214 | 7.0 | 9.0 | 0.00 | 0.00 | 0.00 | 78 | 1014.3 |
| 20260504035205 | 48 | 206 | 7.0 | 9.0 | 0.00 | 0.00 | 0.00 | 79 | 1014.2 |
| 20260504034706 | 48 | 212 | 9.0 | 12.0 | 0.00 | 0.00 | 0.00 | 80 | 1014.3 |
| 20260504034205 | 48 | 205 | 9.0 | 12.0 | 0.00 | 0.00 | 0.00 | 79 | 1014.2 |
| 20260504033705 | 47 | 202 | 7.0 | 10.0 | 0.00 | 0.00 | 0.00 | 78 | 1014.2 |
| 20260504033205 | 47 | 199 | 5.0 | 7.0 | 0.00 | 0.00 | 0.00 | 77 | 1014.2 |
| 20260504031705 | 47 | 122 | 1.0 | 2.0 | 0.00 | 0.00 | 0.00 | 77 | 1014.0 |
| 20260504031205 | 47 | 25 | 0.0 | 1.0 | 0.00 | 0.00 | 0.00 | 76 | 1014.0 |
| 20260504030705 | 47 | 25 | 0.0 | 1.0 | 0.00 | 0.00 | 0.00 | 76 | 1014.1 |
| 20260504025705 | 47 | 25 | 0.0 | 1.0 | 0.00 | 0.00 | 0.00 | 76 | 1014.0 |
| 20260504025205 | 48 | 25 | 0.0 | 0.0 | 0.00 | 0.00 | 0.00 | 76 | 1014.0 |
| 20260504024705 | 48 | 25 | 1.0 | 2.0 | 0.00 | 0.00 | 0.00 | 76 | 1014.0 |
| 20260504024205 | 48 | 25 | 1.0 | 2.0 | 0.00 | 0.00 | 0.00 | 75 | 1014.0 |
| 20260504022705 | 48 | 15 | 0.0 | 0.0 | 0.00 | 0.00 | 0.00 | 73 | 1014.0 |
| 20260504022205 | 48 | 15 | 0.0 | 0.0 | 0.00 | 0.00 | 0.00 | 72 | 1014.0 |
| 20260504021705 | 48 | 15 | 0.0 | 1.0 | 0.00 | 0.00 | 0.00 | 72 | 1013.9 |
| 20260504021205 | 48 | 15 | 0.0 | 1.0 | 0.00 | 0.00 | 0.00 | 72 | 1013.9 |
| 20260504020705 | 49 | 15 | 0.0 | 1.0 | 0.00 | 0.00 | 0.00 | 72 | 1013.9 |
| 20260504020205 | 49 | 15 | 0.0 | 0.0 | 0.00 | 0.00 | 0.00 | 72 | 1013.9 |
| 20260504015705 | 49 | 15 | 0.0 | 0.0 | 0.00 | 0.00 | 0.00 | 72 | 1014.0 |
| 20260504015205 | 49 | 15 | 0.0 | 0.0 | 0.00 | 0.00 | 0.00 | 72 | 1014.0 |
| 20260504014705 | 50 | 15 | 0.0 | 0.0 | 0.00 | 0.00 | 0.00 | 71 | 1013.9 |
| 20260504013205 | 50 | 15 | 0.0 | 1.0 | 0.00 | 0.00 | 0.00 | 67 | 1013.8 |
| 20260504012705 | 51 | 331 | 0.0 | 0.0 | 0.00 | 0.00 | 0.00 | 67 | 1013.7 |
| 20260504012206 | 51 | 321 | 0.0 | 1.0 | 0.00 | 0.00 | 0.00 | 68 | 1013.6 |
| 20260504011705 | 51 | 321 | 0.0 | 0.0 | 0.00 | 0.00 | 0.00 | 67 | 1013.5 |